This is the latest recevied weather packets stored in our database for station/object NU3S-7. If no packets are shown the sender has not sent any weather packets the latest 1 day(s).
| Time | Temp. | Humidity | Pressure | Rain* | Wind** | Luminosity | Snow |
|---|---|---|---|---|---|---|---|
| 1778117920 | 10.56° C | 81% | 1012.3 hPa | 11.94 mm | - | - | - |
| 1778117361 | 11.11° C | 81% | 1012.3 hPa | 11.94 mm | - | - | - |
| 1778117319 | 11.11° C | 81% | 1012.3 hPa | 11.94 mm | - | - | - |
| 1778116717 | 11.11° C | 81% | 1012.2 hPa | 11.94 mm | - | - | - |
| 1778114916 | 11.11° C | 81% | 1012.5 hPa | 11.94 mm | - | - | - |
| 1778107724 | 12.78° C | 84% | 1011.6 hPa | 11.94 mm | - | - | - |
| 1778106012 | 12.22° C | 86% | 1011.4 hPa | 11.94 mm | - | - | - |
| 1778102928 | 12.78° C | 86% | 1010.9 hPa | 11.94 mm | - | - | - |
| 1778100535 | 12.22° C | 88% | 1010.4 hPa | 11.94 mm | - | - | - |
| 1778098706 | 12.22° C | 93% | 1010.4 hPa | 11.94 mm | - | - | - |
| 1778097513 | 12.22° C | 93% | 1010.3 hPa | 11.94 mm | - | - | - |
| 1778096315 | 12.22° C | 95% | 1010.5 hPa | 11.94 mm | - | - | - |
| 1778095704 | 12.22° C | 96% | 1010.5 hPa | 11.94 mm | - | - | - |
| 1778094505 | 12.22° C | 96% | 1010.5 hPa | 11.94 mm | - | - | - |
| 1778090293 | 11.67° C | 98% | 1010.2 hPa | 11.94 mm | - | - | - |
| 1778087888 | 10.56° C | 100% | 1010.2 hPa | 11.94 mm | - | - | - |
| 1778086697 | 10.56° C | 100% | 1010.1 hPa | 11.94 mm | - | - | - |
| 1778085486 | 11.11° C | 100% | 1009.9 hPa | 11.94 mm | - | - | - |
| 1778079591 | 9.44° C | 100% | 1008.5 hPa | 11.94 mm | - | - | - |
| 1778079479 | 9.44° C | 100% | 1008.5 hPa | 11.94 mm | - | - | - |
| 1778076473 | 8.89° C | 100% | 1007.7 hPa | 11.68 mm | - | - | - |
| 1778075873 | 8.89° C | 100% | 1007.6 hPa | 11.68 mm | - | - | - |
| 1778074212 | 9.44° C | 100% | 1007.2 hPa | 11.43 mm | - | - | - |
| 1778073611 | 9.44° C | 100% | 1007.3 hPa | 11.18 mm | - | - | - |
| 1778071215 | 11.11° C | 100% | 1006.4 hPa | 11.18 mm | - | - | - |
* Rain since midnight (hover to see other rain measurements)
** Current wind speed in m/s (hover to see current wind gust speed)